Torna al catalogo

COSMOS 1661

AttivoNavigazioneHEO
NORAD 15827·PAYLOAD·🇷🇺 Russia

Lanciato Jun 18, 1985 da Plesetsk Cosmodrome

Loading…

Prossimi Passaggi (prossime 24 ore)

TLE

AggiornatoSource: Space-Track

Epoca: Sep 14, 2026, 22:19 UTC

1 15827U 85049A   26257.93006719 -.00000846  00000-0  00000-0 0  9995
2 15827  67.7409 102.9596 5914442  59.8231 345.8769  2.00556541302091

Traccia COSMOS 1661 in tempo reale con AllMySat

Download on the App Store